Location: Lecco
(45.8566°N, 9.3977°E)
Time: 18:09:05
(UTC+02:00)

Courier 1B Rocket - Pass Details

Date: 31 August 2019
Orbit: 920 x 1202 km, 28.2° (Epoch: 15 September)

Event Time Altitude Azimuth Distance (km) Brightness Sun altitude
Rises 00:58:55 0° 213° (SSW) 3,622 - -35.0°
Reaches altitude 10° 01:03:27 10° 184° (S) 2,735 - -35.1°
Maximum altitude 01:05:51 12° 162° (SSE) 2,617 - -35.2°
Drops below altitude 10° 01:08:17 10° 141° (SE) 2,808 - -35.2°
Sets 01:13:05 0° 113° (ESE) 3,840 - -35.3°
